Location: Maiden
(35.5760°N, 81.2120°W)
Time: 03:39:01
(UTC-04:00)

Vanguard 2 - Pass Details

Date: 13 August 2020
Orbit: 553 x 2937 km, 32.9° (Epoch: 20 September)

Event Time Altitude Azimuth Distance (km) Brightness Sun altitude
Rises 16:28:08 0° 182° (S) 6,016 12.3 44.8°
Reaches altitude 10° 16:34:51 10° 161° (SSE) 5,400 11.9 43.5°
Maximum altitude 16:42:36 15° 133° (SE) 5,256 11.7 42.0°
Drops below altitude 10° 16:50:43 10° 105° (ESE) 5,764 11.7 40.4°
Sets 16:58:13 0° 86° (E) 6,670 11.8 38.9°
